Location: Arrington
(35.8681°N, 86.7092°W)
Time: 21:39:32
(UTC+00:00)

NOSS 3-4 (A) - Pass Details

Date: 23 November 2019
Orbit: 907 x 1306 km, 63.4° (Epoch: 11 December)

Event Time Altitude Azimuth Distance (km) Brightness Sun altitude
Exits shadow 11:08:43 18° 313° (NW) 2,490 5.1 -16.5°
Maximum altitude 11:14:04 52° 245° (WSW) 1,468 4.1 -15.5°
Drops below altitude 10° 11:21:38 10° 171° (S) 3,254 6.5 -14.0°
Sets 11:24:36 0° 167° (SSE) 4,248 7.2 -13.4°
